Time,TemperatureF,DewpointF,PressureIn,WindDirection,WindDirectionDegrees,WindSpeedMPH,WindSpeedGustMPH,Humidity,HourlyPrecipIn,Conditions,Clouds,dailyrainin,SoftwareType,DateUTC
2013-12-14 00:01:00,45.9,44.8,29.79,SSE,158,4.0,10.0,96,0.00,,,0.00,VWS V14.01,2013-12-14 06:01:00,
2013-12-14 00:06:00,45.9,44.8,29.79,South,178,5.0,10.0,96,0.00,,,0.00,VWS V14.01,2013-12-14 06:06:00,
2013-12-14 00:11:00,45.9,44.5,29.79,SSE,158,7.0,7.0,95,0.00,,,0.00,VWS V14.01,2013-12-14 06:11:00,
2013-12-14 00:16:00,45.9,44.5,29.79,SSE,162,4.0,4.0,95,0.00,,,0.00,VWS V14.01,2013-12-14 06:16:00,
2013-12-14 00:21:00,45.9,44.8,29.78,SSW,213,4.0,10.0,96,0.00,,,0.00,VWS V14.01,2013-12-14 06:21:00,
2013-12-14 00:26:00,45.9,44.8,29.78,South,183,4.0,7.0,96,0.00,,,0.00,VWS V14.01,2013-12-14 06:26:00,
2013-12-14 00:31:00,45.9,44.8,29.78,South,184,3.0,8.0,96,0.00,,,0.00,VWS V14.01,2013-12-14 06:31:00,
2013-12-14 00:36:00,45.9,44.8,29.79,SSE,163,4.0,7.0,96,0.00,,,0.00,VWS V14.01,2013-12-14 06:36:00,
2013-12-14 00:41:00,45.9,44.8,29.79,SSE,163,4.0,9.0,96,0.00,,,0.00,VWS V14.01,2013-12-14 06:41:00,
2013-12-14 00:46:00,45.9,44.8,29.78,SSE,168,0.0,9.0,96,0.00,,,0.00,VWS V14.01,2013-12-14 06:46:00,
2013-12-14 00:51:00,45.9,44.8,29.78,SSE,162,6.0,7.0,96,0.00,,,0.00,VWS V14.01,2013-12-14 06:51:00,
2013-12-14 00:56:00,45.8,44.7,29.78,South,171,0.0,5.0,96,0.00,,,0.00,VWS V14.01,2013-12-14 06:56:00,
2013-12-14 01:01:00,45.8,44.7,29.78,South,178,5.0,8.0,96,0.00,,,0.00,VWS V14.01,2013-12-14 07:01:00,
2013-12-14 01:06:00,45.8,44.7,29.78,South,186,2.0,10.0,96,0.00,,,0.00,VWS V14.01,2013-12-14 07:06:00,
2013-12-14 01:11:00,45.8,44.7,29.78,East,98,5.0,9.0,96,0.00,,,0.00,VWS V14.01,2013-12-14 07:11:00,
2013-12-14 01:16:00,45.7,44.6,29.78,SSW,205,4.0,5.0,96,0.00,,,0.00,VWS V14.01,2013-12-14 07:16:00,
2013-12-14 01:21:00,45.7,44.6,29.77,East,98,3.0,8.0,96,0.00,,,0.00,VWS V14.01,2013-12-14 07:21:00,
2013-12-14 01:26:00,45.6,44.5,29.78,South,184,0.0,4.0,96,0.00,,,0.00,VWS V14.01,2013-12-14 07:26:00,
2013-12-14 01:31:00,45.5,44.4,29.78,South,174,3.0,3.0,96,0.00,,,0.00,VWS V14.01,2013-12-14 07:31:00,
2013-12-14 01:36:00,45.4,44.3,29.77,SE,127,3.0,3.0,96,0.00,,,0.00,VWS V14.01,2013-12-14 07:36:00,
2013-12-14 01:41:00,45.2,44.1,29.77,SSE,152,1.0,3.0,96,0.00,,,0.00,VWS V14.01,2013-12-14 07:41:00,
2013-12-14 01:46:00,45.0,43.9,29.77,SE,132,0.0,3.0,96,0.00,,,0.00,VWS V14.01,2013-12-14 07:46:00,
2013-12-14 01:51:00,44.9,43.8,29.77,SE,137,1.0,3.0,96,0.00,,,0.00,VWS V14.01,2013-12-14 07:51:00,
2013-12-14 01:56:00,44.7,43.4,29.78,SE,136,0.0,0.0,95,0.00,,,0.00,VWS V14.01,2013-12-14 07:56:00,
2013-12-14 02:01:00,44.6,43.3,29.78,SE,136,0.0,0.0,95,0.00,,,0.00,VWS V14.01,2013-12-14 08:01:00,
2013-12-14 02:06:00,44.5,43.2,29.78,SE,136,0.0,0.0,95,0.00,,,0.00,VWS V14.01,2013-12-14 08:06:00,
2013-12-14 02:11:00,44.2,43.1,29.79,SE,136,0.0,0.0,96,0.00,,,0.00,VWS V14.01,2013-12-14 08:11:00,
2013-12-14 02:16:00,43.9,42.6,29.79,SE,136,0.0,0.0,95,0.00,,,0.00,VWS V14.01,2013-12-14 08:16:00,
2013-12-14 02:20:00,43.5,42.2,29.79,SE,138,0.0,0.0,95,0.00,,,0.00,VWS V14.01,2013-12-14 08:20:00,
2013-12-14 02:25:00,43.2,41.9,29.80,SE,138,0.0,0.0,95,0.00,,,0.00,VWS V14.01,2013-12-14 08:25:00,
2013-12-14 02:30:00,43.0,41.7,29.80,SE,138,0.0,0.0,95,0.00,,,0.00,VWS V14.01,2013-12-14 08:30:00,
2013-12-14 02:35:00,42.8,41.5,29.80,SE,138,0.0,0.0,95,0.00,,,0.00,VWS V14.01,2013-12-14 08:35:00,
2013-12-14 02:40:00,42.6,41.3,29.80,SE,138,0.0,0.0,95,0.00,,,0.00,VWS V14.01,2013-12-14 08:40:00,
2013-12-14 02:45:00,42.3,41.0,29.80,SE,138,0.0,0.0,95,0.00,,,0.00,VWS V14.01,2013-12-14 08:45:00,
2013-12-14 02:50:00,42.1,40.8,29.80,SE,138,0.0,0.0,95,0.00,,,0.00,VWS V14.01,2013-12-14 08:50:00,
2013-12-14 02:55:00,41.8,40.5,29.79,SE,138,0.0,0.0,95,0.00,,,0.00,VWS V14.01,2013-12-14 08:55:00,
2013-12-14 03:00:00,41.5,40.2,29.80,SE,138,0.0,0.0,95,0.00,,,0.00,VWS V14.01,2013-12-14 09:00:00,
2013-12-14 03:05:00,41.2,39.9,29.79,NW,321,2.0,3.0,95,0.00,,,0.00,VWS V14.01,2013-12-14 09:05:00,
2013-12-14 03:10:00,40.9,39.6,29.80,NW,321,0.0,2.0,95,0.00,,,0.00,VWS V14.01,2013-12-14 09:10:00,
2013-12-14 03:15:00,40.8,39.5,29.80,NW,321,1.0,2.0,95,0.00,,,0.00,VWS V14.01,2013-12-14 09:15:00,
2013-12-14 03:20:00,40.9,39.6,29.80,NW,321,0.0,0.0,95,0.00,,,0.00,VWS V14.01,2013-12-14 09:20:00,
2013-12-14 03:25:00,40.8,39.5,29.80,NW,321,1.0,1.0,95,0.00,,,0.00,VWS V14.01,2013-12-14 09:25:00,
2013-12-14 03:30:00,41.0,39.7,29.81,NW,321,0.0,0.0,95,0.00,,,0.00,VWS V14.01,2013-12-14 09:30:00,
2013-12-14 03:35:00,41.0,39.7,29.81,NW,321,0.0,0.0,95,0.00,,,0.00,VWS V14.01,2013-12-14 09:35:00,
2013-12-14 03:40:00,41.0,39.7,29.82,NW,321,0.0,0.0,95,0.00,,,0.00,VWS V14.01,2013-12-14 09:40:00,
2013-12-14 03:45:00,41.0,39.7,29.82,NW,321,0.0,0.0,95,0.00,,,0.00,VWS V14.01,2013-12-14 09:45:00,
2013-12-14 03:50:00,41.0,39.7,29.82,NW,321,0.0,0.0,95,0.00,,,0.00,VWS V14.01,2013-12-14 09:50:00,
2013-12-14 03:55:00,41.1,40.0,29.82,NW,321,0.0,0.0,96,0.00,,,0.00,VWS V14.01,2013-12-14 09:55:00,
2013-12-14 04:00:00,41.4,40.3,29.83,NW,321,0.0,0.0,96,0.00,,,0.00,VWS V14.01,2013-12-14 10:00:00,
2013-12-14 04:05:00,41.5,40.5,29.83,NW,321,0.0,0.0,96,0.00,,,0.00,VWS V14.01,2013-12-14 10:05:00,
2013-12-14 04:10:00,41.7,40.7,29.83,NW,309,2.0,2.0,96,0.00,,,0.00,VWS V14.01,2013-12-14 10:10:00,
2013-12-14 04:15:00,41.9,40.8,29.83,WNW,298,0.0,3.0,96,0.00,,,0.00,VWS V14.01,2013-12-14 10:15:00,
2013-12-14 04:20:00,42.0,40.9,29.83,NW,319,2.0,5.0,96,0.00,,,0.00,VWS V14.01,2013-12-14 10:20:00,
2013-12-14 04:25:00,42.2,41.1,29.83,NW,320,0.0,4.0,96,0.00,,,0.00,VWS V14.01,2013-12-14 10:25:00,
2013-12-14 04:30:00,42.5,41.4,29.83,NW,325,1.0,4.0,96,0.00,,,0.00,VWS V14.01,2013-12-14 10:30:00,
2013-12-14 04:35:00,42.7,41.6,29.83,NW,323,0.0,2.0,96,0.00,,,0.00,VWS V14.01,2013-12-14 10:35:00,
2013-12-14 04:40:00,42.9,41.8,29.83,WNW,295,2.0,4.0,96,0.00,,,0.00,VWS V14.01,2013-12-14 10:40:00,
2013-12-14 04:45:00,43.2,42.1,29.84,NW,306,2.0,7.0,96,0.00,,,0.00,VWS V14.01,2013-12-14 10:45:00,
2013-12-14 04:50:00,43.5,42.4,29.84,NNW,333,6.0,8.0,96,0.00,,,0.00,VWS V14.01,2013-12-14 10:50:00,
2013-12-14 04:55:00,43.7,42.6,29.84,WNW,300,4.0,11.0,96,0.00,,,0.00,VWS V14.01,2013-12-14 10:55:00,
2013-12-14 05:00:00,44.0,43.2,29.85,NW,309,2.0,5.0,97,0.00,,,0.00,VWS V14.01,2013-12-14 11:00:00,
2013-12-14 05:05:00,44.2,43.4,29.86,North,350,10.0,11.0,97,0.00,,,0.00,VWS V14.01,2013-12-14 11:05:00,
2013-12-14 05:10:00,44.3,43.2,29.87,WNW,303,7.0,10.0,96,0.00,,,0.00,VWS V14.01,2013-12-14 11:10:00,
2013-12-14 05:15:00,44.4,43.3,29.87,NNW,335,3.0,8.0,96,0.00,,,0.00,VWS V14.01,2013-12-14 11:15:00,
2013-12-14 05:20:00,44.3,43.2,29.87,NNW,338,9.0,9.0,96,0.00,,,0.00,VWS V14.01,2013-12-14 11:20:00,
2013-12-14 05:25:00,44.2,43.1,29.88,NNW,328,11.0,14.0,96,0.00,,,0.00,VWS V14.01,2013-12-14 11:25:00,
2013-12-14 05:30:00,44.1,43.0,29.88,NNW,347,4.0,9.0,96,0.00,,,0.00,VWS V14.01,2013-12-14 11:30:00,
2013-12-14 05:35:00,44.0,42.9,29.88,NW,325,10.0,10.0,96,0.00,,,0.00,VWS V14.01,2013-12-14 11:35:00,
2013-12-14 05:40:00,43.7,42.6,29.89,WSW,246,3.0,17.0,96,0.01,,,0.01,VWS V14.01,2013-12-14 11:40:00,
2013-12-14 05:45:00,43.3,42.2,29.90,NW,307,4.0,18.0,96,0.01,,,0.01,VWS V14.01,2013-12-14 11:45:00,
2013-12-14 05:50:00,43.1,42.0,29.90,NNW,342,4.0,11.0,96,0.01,,,0.01,VWS V14.01,2013-12-14 11:50:00,
2013-12-14 05:55:00,42.9,41.8,29.91,NW,323,6.0,11.0,96,0.01,,,0.01,VWS V14.01,2013-12-14 11:55:00,
2013-12-14 06:01:00,42.7,41.6,29.92,NNW,332,21.0,21.0,96,0.01,,,0.01,VWS V14.01,2013-12-14 12:01:00,
2013-12-14 06:06:00,42.5,41.4,29.92,West,275,9.0,17.0,96,0.01,,,0.01,VWS V14.01,2013-12-14 12:06:00,
2013-12-14 06:11:00,42.5,41.4,29.92,NW,306,2.0,10.0,96,0.01,,,0.01,VWS V14.01,2013-12-14 12:11:00,
2013-12-14 06:15:00,42.5,41.4,29.93,NW,313,7.0,12.0,96,0.01,,,0.01,VWS V14.01,2013-12-14 12:15:00,
2013-12-14 06:20:00,42.5,41.4,29.93,NW,324,5.0,7.0,96,0.01,,,0.01,VWS V14.01,2013-12-14 12:20:00,
2013-12-14 06:25:00,42.6,41.5,29.94,NNW,338,6.0,17.0,96,0.01,,,0.01,VWS V14.01,2013-12-14 12:25:00,
2013-12-14 06:30:00,42.6,41.5,29.95,NNW,346,8.0,10.0,96,0.01,,,0.01,VWS V14.01,2013-12-14 12:30:00,
2013-12-14 06:35:00,42.6,41.5,29.96,NNW,348,7.0,9.0,96,0.01,,,0.01,VWS V14.01,2013-12-14 12:35:00,
2013-12-14 06:40:00,42.7,41.6,29.96,NW,319,5.0,10.0,96,0.01,,,0.01,VWS V14.01,2013-12-14 12:40:00,
2013-12-14 06:45:00,42.7,41.6,29.97,NNW,348,7.0,12.0,96,0.00,,,0.01,VWS V14.01,2013-12-14 12:45:00,
2013-12-14 06:50:00,42.7,41.6,29.97,NW,323,10.0,10.0,96,0.00,,,0.01,VWS V14.01,2013-12-14 12:50:00,
2013-12-14 06:55:00,42.7,41.6,29.98,NW,319,5.0,10.0,96,0.00,,,0.01,VWS V14.01,2013-12-14 12:55:00,
2013-12-14 07:00:00,42.7,41.6,29.98,WNW,300,12.0,12.0,96,0.00,,,0.01,VWS V14.01,2013-12-14 13:00:00,
2013-12-14 07:05:00,42.7,41.6,29.98,NNW,339,4.0,18.0,96,0.00,,,0.01,VWS V14.01,2013-12-14 13:05:00,
2013-12-14 07:10:00,42.6,41.5,29.99,NNW,346,1.0,10.0,96,0.00,,,0.01,VWS V14.01,2013-12-14 13:10:00,
2013-12-14 07:15:00,42.6,41.5,29.99,North,355,7.0,10.0,96,0.00,,,0.01,VWS V14.01,2013-12-14 13:15:00,
2013-12-14 07:20:00,42.5,41.4,29.99,WNW,289,3.0,13.0,96,0.00,,,0.01,VWS V14.01,2013-12-14 13:20:00,
2013-12-14 07:25:00,42.5,41.4,30.00,WNW,294,3.0,12.0,96,0.00,,,0.01,VWS V14.01,2013-12-14 13:25:00,
2013-12-14 07:30:00,42.5,41.4,30.00,NNW,335,6.0,10.0,96,0.00,,,0.01,VWS V14.01,2013-12-14 13:30:00,
2013-12-14 07:35:00,42.5,41.4,30.00,NW,312,5.0,7.0,96,0.00,,,0.01,VWS V14.01,2013-12-14 13:35:00,
2013-12-14 07:40:00,42.6,41.5,30.01,NW,313,3.0,9.0,96,0.00,,,0.01,VWS V14.01,2013-12-14 13:40:00,
2013-12-14 07:45:00,42.6,41.5,30.02,NW,325,5.0,7.0,96,0.00,,,0.01,VWS V14.01,2013-12-14 13:45:00,
2013-12-14 07:50:00,42.6,41.5,30.02,NW,324,6.0,11.0,96,0.00,,,0.01,VWS V14.01,2013-12-14 13:50:00,
2013-12-14 07:55:00,42.7,41.6,30.03,NNW,338,4.0,7.0,96,0.00,,,0.01,VWS V14.01,2013-12-14 13:55:00,
2013-12-14 08:00:00,42.7,41.6,30.03,WNW,292,1.0,5.0,96,0.00,,,0.01,VWS V14.01,2013-12-14 14:00:00,
2013-12-14 08:05:00,42.8,41.7,30.04,NW,316,4.0,7.0,96,0.00,,,0.01,VWS V14.01,2013-12-14 14:05:00,
2013-12-14 08:10:00,42.8,41.7,30.04,NNW,333,4.0,7.0,96,0.00,,,0.01,VWS V14.01,2013-12-14 14:10:00,
2013-12-14 08:15:00,42.9,41.8,30.05,NNW,340,5.0,8.0,96,0.00,,,0.01,VWS V14.01,2013-12-14 14:15:00,
2013-12-14 08:20:00,42.9,41.8,30.05,NW,310,4.0,5.0,96,0.00,,,0.01,VWS V14.01,2013-12-14 14:20:00,
2013-12-14 08:25:00,43.0,41.9,30.06,WNW,302,3.0,5.0,96,0.00,,,0.01,VWS V14.01,2013-12-14 14:25:00,
2013-12-14 08:30:00,43.0,41.9,30.06,WNW,284,2.0,8.0,96,0.00,,,0.01,VWS V14.01,2013-12-14 14:30:00,
2013-12-14 08:35:00,43.1,42.0,30.06,WNW,303,2.0,6.0,96,0.00,,,0.01,VWS V14.01,2013-12-14 14:35:00,
2013-12-14 08:40:00,43.2,42.1,30.06,WNW,292,0.0,4.0,96,0.00,,,0.01,VWS V14.01,2013-12-14 14:40:00,
2013-12-14 08:45:00,43.3,42.2,30.07,NW,314,2.0,6.0,96,0.00,,,0.01,VWS V14.01,2013-12-14 14:45:00,
2013-12-14 08:50:00,43.3,42.2,30.07,WNW,292,2.0,5.0,96,0.00,,,0.01,VWS V14.01,2013-12-14 14:50:00,
2013-12-14 08:55:00,43.4,42.3,30.07,NW,317,3.0,6.0,96,0.00,,,0.01,VWS V14.01,2013-12-14 14:55:00,
2013-12-14 09:00:00,43.5,42.2,30.07,NW,305,3.0,6.0,95,0.00,,,0.01,VWS V14.01,2013-12-14 15:00:00,
2013-12-14 09:05:00,43.6,42.5,30.07,WNW,286,5.0,6.0,96,0.00,,,0.01,VWS V14.01,2013-12-14 15:05:00,
2013-12-14 09:10:00,43.7,42.4,30.08,West,279,1.0,3.0,95,0.00,,,0.01,VWS V14.01,2013-12-14 15:10:00,
2013-12-14 09:15:00,43.8,42.5,30.08,West,274,4.0,6.0,95,0.00,,,0.01,VWS V14.01,2013-12-14 15:15:00,
2013-12-14 09:20:00,43.8,42.5,30.09,West,272,3.0,9.0,95,0.00,,,0.01,VWS V14.01,2013-12-14 15:20:00,
2013-12-14 09:25:00,43.8,42.5,30.09,NNW,342,8.0,9.0,95,0.00,,,0.01,VWS V14.01,2013-12-14 15:25:00,
2013-12-14 09:30:00,43.8,42.2,30.09,NW,314,9.0,11.0,94,0.00,,,0.01,VWS V14.01,2013-12-14 15:30:00,
2013-12-14 09:35:00,43.8,42.2,30.10,NW,315,6.0,15.0,94,0.00,,,0.01,VWS V14.01,2013-12-14 15:35:00,
2013-12-14 09:40:00,43.7,41.8,30.11,NNW,344,7.0,13.0,93,0.00,,,0.01,VWS V14.01,2013-12-14 15:40:00,
2013-12-14 09:45:00,43.7,41.5,30.11,WNW,292,4.0,12.0,92,0.00,,,0.01,VWS V14.01,2013-12-14 15:45:00,
2013-12-14 09:50:00,43.7,41.0,30.12,NNW,342,22.0,22.0,90,0.00,,,0.01,VWS V14.01,2013-12-14 15:50:00,
2013-12-14 09:55:00,43.7,40.7,30.12,West,277,10.0,25.0,89,0.00,,,0.01,VWS V14.01,2013-12-14 15:55:00,
2013-12-14 10:00:00,43.5,40.2,30.13,WNW,301,6.0,18.0,88,0.00,,,0.01,VWS V14.01,2013-12-14 16:00:00,
2013-12-14 10:05:00,43.4,39.8,30.13,North,355,14.0,16.0,87,0.00,,,0.01,VWS V14.01,2013-12-14 16:05:00,
2013-12-14 10:10:00,43.3,39.4,30.14,WNW,286,8.0,15.0,86,0.00,,,0.01,VWS V14.01,2013-12-14 16:10:00,
2013-12-14 10:15:00,43.2,39.3,30.14,West,275,7.0,11.0,86,0.00,,,0.01,VWS V14.01,2013-12-14 16:15:00,
2013-12-14 10:20:00,42.8,38.9,30.15,WNW,301,7.0,15.0,86,0.00,,,0.01,VWS V14.01,2013-12-14 16:20:00,
2013-12-14 10:25:00,42.4,38.2,30.15,WNW,288,6.0,18.0,85,0.00,,,0.01,VWS V14.01,2013-12-14 16:25:00,
2013-12-14 10:30:00,42.1,37.9,30.15,West,281,7.0,16.0,85,0.00,,,0.01,VWS V14.01,2013-12-14 16:30:00,
2013-12-14 10:35:00,42.0,37.8,30.15,West,278,7.0,14.0,85,0.00,,,0.01,VWS V14.01,2013-12-14 16:35:00,
2013-12-14 10:40:00,42.1,37.9,30.15,NW,318,12.0,15.0,85,0.00,,,0.01,VWS V14.01,2013-12-14 16:40:00,
2013-12-14 10:45:00,42.2,38.0,30.15,WNW,296,6.0,12.0,85,0.00,,,0.01,VWS V14.01,2013-12-14 16:45:00,
2013-12-14 10:50:00,42.1,37.6,30.16,NW,319,6.0,16.0,84,0.00,,,0.01,VWS V14.01,2013-12-14 16:50:00,
2013-12-14 10:55:00,42.0,37.5,30.16,WNW,297,11.0,13.0,84,0.00,,,0.01,VWS V14.01,2013-12-14 16:55:00,
2013-12-14 11:00:00,41.8,37.6,30.16,West,275,9.0,14.0,85,0.00,,,0.01,VWS V14.01,2013-12-14 17:00:00,
2013-12-14 11:05:00,41.8,37.6,30.17,WNW,301,4.0,11.0,85,0.00,,,0.01,VWS V14.01,2013-12-14 17:05:00,
2013-12-14 11:10:00,41.8,37.3,30.17,West,271,9.0,19.0,84,0.00,,,0.01,VWS V14.01,2013-12-14 17:10:00,
2013-12-14 11:15:00,41.8,37.3,30.17,WNW,292,11.0,18.0,84,0.00,,,0.01,VWS V14.01,2013-12-14 17:15:00,
2013-12-14 11:20:00,42.2,37.4,30.17,NW,316,13.0,13.0,83,0.00,,,0.01,VWS V14.01,2013-12-14 17:20:00,
2013-12-14 11:25:00,42.5,37.4,30.17,WNW,294,5.0,13.0,82,0.00,,,0.01,VWS V14.01,2013-12-14 17:25:00,
2013-12-14 11:30:00,42.5,37.1,30.17,West,281,11.0,15.0,81,0.00,,,0.01,VWS V14.01,2013-12-14 17:30:00,
2013-12-14 11:35:00,42.6,37.5,30.17,NW,309,11.0,12.0,82,0.00,,,0.01,VWS V14.01,2013-12-14 17:35:00,
2013-12-14 11:40:00,42.3,36.9,30.18,NW,309,19.0,20.0,81,0.00,,,0.01,VWS V14.01,2013-12-14 17:40:00,
2013-12-14 11:45:00,41.7,36.3,30.18,West,266,8.0,12.0,81,0.00,,,0.01,VWS V14.01,2013-12-14 17:45:00,
2013-12-14 11:50:00,41.2,35.5,30.18,WSW,254,10.0,16.0,80,0.00,,,0.01,VWS V14.01,2013-12-14 17:50:00,
2013-12-14 11:55:00,40.9,35.2,30.18,West,275,7.0,17.0,80,0.00,,,0.01,VWS V14.01,2013-12-14 17:55:00,
2013-12-14 12:00:00,40.8,35.1,30.18,NW,317,10.0,11.0,80,0.00,,,0.01,VWS V14.01,2013-12-14 18:00:00,
2013-12-14 12:05:00,40.9,34.9,30.18,NW,326,11.0,20.0,79,0.00,,,0.01,VWS V14.01,2013-12-14 18:05:00,
2013-12-14 12:10:00,41.0,34.7,30.18,West,281,8.0,16.0,78,0.00,,,0.01,VWS V14.01,2013-12-14 18:10:00,
2013-12-14 12:15:00,41.0,34.7,30.18,West,265,10.0,16.0,78,0.00,,,0.01,VWS V14.01,2013-12-14 18:15:00,
2013-12-14 12:20:00,41.0,34.7,30.19,NW,316,3.0,11.0,78,0.00,,,0.01,VWS V14.01,2013-12-14 18:20:00,
2013-12-14 12:25:00,41.0,34.3,30.19,SW,235,11.0,18.0,77,0.00,,,0.01,VWS V14.01,2013-12-14 18:25:00,
2013-12-14 12:30:00,40.5,34.2,30.19,WNW,282,10.0,18.0,78,0.00,,,0.01,VWS V14.01,2013-12-14 18:30:00,
2013-12-14 12:35:00,40.1,34.1,30.19,West,281,11.0,16.0,79,0.00,,,0.01,VWS V14.01,2013-12-14 18:35:00,
2013-12-14 12:40:00,39.8,33.8,30.20,WNW,283,9.0,16.0,79,0.00,,,0.01,VWS V14.01,2013-12-14 18:40:00,
2013-12-14 12:45:00,39.7,33.7,30.20,West,280,17.0,21.0,79,0.00,,,0.01,VWS V14.01,2013-12-14 18:45:00,
2013-12-14 12:50:00,39.2,33.2,30.20,West,270,6.0,16.0,79,0.00,,,0.01,VWS V14.01,2013-12-14 18:50:00,
2013-12-14 12:55:00,39.1,33.2,30.20,West,281,8.0,13.0,79,0.00,,,0.01,VWS V14.01,2013-12-14 18:55:00,
2013-12-14 13:00:00,39.1,33.2,30.20,West,277,14.0,14.0,79,0.00,,,0.01,VWS V14.01,2013-12-14 19:00:00,
2013-12-14 13:05:00,39.0,32.7,30.20,NNW,346,9.0,18.0,78,0.00,,,0.01,VWS V14.01,2013-12-14 19:05:00,
2013-12-14 13:10:00,39.0,32.7,30.20,WNW,286,12.0,12.0,78,0.00,,,0.01,VWS V14.01,2013-12-14 19:10:00,
2013-12-14 13:15:00,39.0,32.7,30.20,WNW,285,13.0,14.0,78,0.00,,,0.01,VWS V14.01,2013-12-14 19:15:00,
2013-12-14 13:20:00,39.0,32.4,30.20,West,276,10.0,18.0,77,0.00,,,0.01,VWS V14.01,2013-12-14 19:20:00,
2013-12-14 13:25:00,38.9,32.0,30.20,NNW,344,10.0,16.0,76,0.00,,,0.01,VWS V14.01,2013-12-14 19:25:00,
2013-12-14 13:30:00,38.8,31.9,30.20,NNW,343,4.0,12.0,76,0.00,,,0.01,VWS V14.01,2013-12-14 19:30:00,
2013-12-14 13:35:00,38.8,31.9,30.20,WNW,298,14.0,14.0,76,0.00,,,0.01,VWS V14.01,2013-12-14 19:35:00,
2013-12-14 13:40:00,38.9,32.0,30.20,WNW,288,10.0,19.0,76,0.00,,,0.01,VWS V14.01,2013-12-14 19:40:00,
2013-12-14 13:45:00,38.8,31.9,30.20,West,271,13.0,19.0,76,0.00,,,0.01,VWS V14.01,2013-12-14 19:45:00,
2013-12-14 13:50:00,38.8,31.6,30.20,NW,322,6.0,18.0,75,0.00,,,0.01,VWS V14.01,2013-12-14 19:50:00,
2013-12-14 13:55:00,38.8,31.6,30.21,West,266,13.0,13.0,75,0.00,,,0.01,VWS V14.01,2013-12-14 19:55:00,
2013-12-14 14:00:00,38.8,31.6,30.21,WNW,293,8.0,13.0,75,0.00,,,0.01,VWS V14.01,2013-12-14 20:00:00,
2013-12-14 14:05:00,38.9,31.7,30.21,WNW,292,7.0,21.0,75,0.00,,,0.01,VWS V14.01,2013-12-14 20:05:00,
2013-12-14 14:10:00,39.0,31.4,30.21,NW,314,7.0,17.0,74,0.00,,,0.01,VWS V14.01,2013-12-14 20:10:00,
2013-12-14 14:15:00,39.2,32.0,30.21,NNW,329,10.0,14.0,75,0.00,,,0.01,VWS V14.01,2013-12-14 20:15:00,
2013-12-14 14:20:00,39.3,31.4,30.21,North,360,10.0,11.0,73,0.00,,,0.01,VWS V14.01,2013-12-14 20:20:00,
2013-12-14 14:25:00,39.6,32.0,30.21,WNW,287,9.0,14.0,74,0.00,,,0.01,VWS V14.01,2013-12-14 20:25:00,
2013-12-14 14:30:00,39.7,31.8,30.21,West,263,11.0,14.0,73,0.00,,,0.01,VWS V14.01,2013-12-14 20:30:00,
2013-12-14 14:35:00,39.8,31.5,30.22,WNW,291,6.0,14.0,72,0.00,,,0.01,VWS V14.01,2013-12-14 20:35:00,
2013-12-14 14:40:00,39.9,31.6,30.22,WNW,298,8.0,16.0,72,0.00,,,0.01,VWS V14.01,2013-12-14 20:40:00,
2013-12-14 14:45:00,40.1,31.8,30.22,West,280,10.0,12.0,72,0.00,,,0.01,VWS V14.01,2013-12-14 20:45:00,
2013-12-14 14:50:00,40.6,32.0,30.22,NW,306,8.0,16.0,71,0.00,,,0.01,VWS V14.01,2013-12-14 20:50:00,
2013-12-14 14:55:00,40.7,31.7,30.22,WSW,258,3.0,13.0,70,0.00,,,0.01,VWS V14.01,2013-12-14 20:55:00,
2013-12-14 15:00:00,41.0,31.6,30.22,NW,307,8.0,17.0,69,0.00,,,0.01,VWS V14.01,2013-12-14 21:00:00,
2013-12-14 15:05:00,41.0,30.9,30.22,WNW,294,7.0,19.0,67,0.00,,,0.01,VWS V14.01,2013-12-14 21:05:00,
2013-12-14 15:10:00,41.0,30.9,30.22,West,269,9.0,18.0,67,0.00,,,0.01,VWS V14.01,2013-12-14 21:10:00,
2013-12-14 15:15:00,41.1,31.4,30.22,NW,324,12.0,14.0,68,0.00,,,0.01,VWS V14.01,2013-12-14 21:15:00,
2013-12-14 15:20:00,41.1,30.6,30.23,NNW,329,13.0,15.0,66,0.00,,,0.01,VWS V14.01,2013-12-14 21:20:00,
2013-12-14 15:25:00,41.3,30.8,30.23,West,281,11.0,14.0,66,0.00,,,0.01,VWS V14.01,2013-12-14 21:25:00,
2013-12-14 15:30:00,41.4,30.9,30.23,NNW,336,11.0,16.0,66,0.00,,,0.01,VWS V14.01,2013-12-14 21:30:00,
2013-12-14 15:35:00,41.6,31.1,30.23,WNW,288,10.0,13.0,66,0.00,,,0.01,VWS V14.01,2013-12-14 21:35:00,
2013-12-14 15:40:00,41.7,31.2,30.23,WNW,302,10.0,12.0,66,0.00,,,0.01,VWS V14.01,2013-12-14 21:40:00,
2013-12-14 15:45:00,41.9,31.4,30.23,West,272,6.0,13.0,66,0.00,,,0.01,VWS V14.01,2013-12-14 21:45:00,
2013-12-14 15:50:00,41.9,31.0,30.23,West,277,7.0,17.0,65,0.00,,,0.01,VWS V14.01,2013-12-14 21:50:00,
2013-12-14 15:55:00,41.9,31.4,30.23,North,350,9.0,9.0,66,0.00,,,0.01,VWS V14.01,2013-12-14 21:55:00,
2013-12-14 16:00:00,42.0,31.1,30.23,NNW,329,3.0,11.0,65,0.00,,,0.01,VWS V14.01,2013-12-14 22:00:00,
2013-12-14 16:05:00,42.0,31.5,30.23,NW,309,5.0,8.0,66,0.00,,,0.01,VWS V14.01,2013-12-14 22:05:00,
2013-12-14 16:10:00,42.1,31.2,30.23,NW,317,4.0,7.0,65,0.00,,,0.01,VWS V14.01,2013-12-14 22:10:00,
2013-12-14 16:15:00,42.1,31.2,30.24,West,269,5.0,11.0,65,0.00,,,0.01,VWS V14.01,2013-12-14 22:15:00,
2013-12-14 16:20:00,42.1,30.8,30.24,West,271,2.0,14.0,64,0.00,,,0.01,VWS V14.01,2013-12-14 22:20:00,
2013-12-14 16:25:00,41.9,30.2,30.24,NNW,342,7.0,11.0,63,0.00,,,0.01,VWS V14.01,2013-12-14 22:25:00,
2013-12-14 16:30:00,41.6,30.3,30.24,WNW,288,3.0,6.0,64,0.00,,,0.01,VWS V14.01,2013-12-14 22:30:00,
2013-12-14 16:35:00,41.5,30.6,30.24,WNW,285,5.0,10.0,65,0.00,,,0.01,VWS V14.01,2013-12-14 22:35:00,
2013-12-14 16:40:00,41.3,30.4,30.25,WNW,282,5.0,10.0,65,0.00,,,0.01,VWS V14.01,2013-12-14 22:40:00,
2013-12-14 16:45:00,41.0,30.5,30.25,NW,318,5.0,14.0,66,0.00,,,0.01,VWS V14.01,2013-12-14 22:45:00,
2013-12-14 16:50:00,40.9,30.4,30.25,West,279,1.0,7.0,66,0.00,,,0.01,VWS V14.01,2013-12-14 22:50:00,
2013-12-14 16:55:00,40.7,30.6,30.25,NW,304,8.0,9.0,67,0.00,,,0.01,VWS V14.01,2013-12-14 22:55:00,
2013-12-14 17:00:00,40.6,30.5,30.25,NW,315,5.0,9.0,67,0.00,,,0.01,VWS V14.01,2013-12-14 23:00:00,
2013-12-14 17:05:00,40.5,30.4,30.24,WNW,284,6.0,6.0,67,0.00,,,0.01,VWS V14.01,2013-12-14 23:05:00,
2013-12-14 17:10:00,40.3,30.2,30.25,WNW,289,9.0,11.0,67,0.00,,,0.01,VWS V14.01,2013-12-14 23:10:00,
2013-12-14 17:15:00,40.2,30.1,30.25,NW,321,6.0,10.0,67,0.00,,,0.01,VWS V14.01,2013-12-14 23:15:00,
2013-12-14 17:20:00,40.1,30.0,30.25,NW,304,3.0,10.0,67,0.00,,,0.01,VWS V14.01,2013-12-14 23:20:00,
2013-12-14 17:25:00,40.0,29.9,30.25,NW,317,6.0,9.0,67,0.00,,,0.01,VWS V14.01,2013-12-14 23:25:00,
2013-12-14 17:30:00,39.8,30.1,30.25,NNE,14,3.0,3.0,68,0.00,,,0.01,VWS V14.01,2013-12-14 23:30:00,
2013-12-14 17:35:00,39.6,30.3,30.25,NNW,340,3.0,5.0,69,0.00,,,0.01,VWS V14.01,2013-12-14 23:35:00,
2013-12-14 17:40:00,39.5,30.2,30.25,NNW,327,4.0,5.0,69,0.00,,,0.01,VWS V14.01,2013-12-14 23:40:00,
2013-12-14 17:45:00,39.2,29.9,30.26,West,272,7.0,12.0,69,0.00,,,0.01,VWS V14.01,2013-12-14 23:45:00,
2013-12-14 17:50:00,39.1,29.5,30.25,WNW,283,4.0,9.0,68,0.00,,,0.01,VWS V14.01,2013-12-14 23:50:00,
2013-12-14 17:55:00,39.0,29.4,30.26,NNW,327,4.0,7.0,68,0.00,,,0.01,VWS V14.01,2013-12-14 23:55:00,
2013-12-14 18:00:00,38.9,29.2,30.26,NW,319,4.0,11.0,68,0.00,,,0.01,VWS V14.01,2013-12-15 00:00:00,
2013-12-14 18:05:00,38.8,29.2,30.26,NW,317,8.0,8.0,68,0.00,,,0.01,VWS V14.01,2013-12-15 00:05:00,
2013-12-14 18:10:00,38.7,29.1,30.26,West,264,2.0,5.0,68,0.00,,,0.01,VWS V14.01,2013-12-15 00:10:00,
2013-12-14 18:15:00,38.5,28.9,30.26,NW,306,2.0,6.0,68,0.00,,,0.01,VWS V14.01,2013-12-15 00:15:00,
2013-12-14 18:20:00,38.4,29.1,30.26,NNW,341,3.0,7.0,69,0.00,,,0.01,VWS V14.01,2013-12-15 00:20:00,
2013-12-14 18:25:00,38.3,29.0,30.26,WNW,292,5.0,5.0,69,0.00,,,0.01,VWS V14.01,2013-12-15 00:25:00,
2013-12-14 18:30:00,38.2,28.9,30.27,WNW,294,4.0,8.0,69,0.00,,,0.01,VWS V14.01,2013-12-15 00:30:00,
2013-12-14 18:35:00,38.0,29.1,30.27,NW,326,2.0,4.0,70,0.00,,,0.01,VWS V14.01,2013-12-15 00:35:00,
2013-12-14 18:40:00,37.9,29.0,30.27,NW,307,4.0,5.0,70,0.00,,,0.01,VWS V14.01,2013-12-15 00:40:00,
2013-12-14 18:45:00,37.8,28.9,30.27,West,281,4.0,6.0,70,0.00,,,0.01,VWS V14.01,2013-12-15 00:45:00,
2013-12-14 18:50:00,37.7,28.8,30.27,WNW,294,3.0,6.0,70,0.00,,,0.01,VWS V14.01,2013-12-15 00:50:00,
2013-12-14 18:55:00,37.6,29.1,30.27,NW,317,4.0,6.0,71,0.00,,,0.01,VWS V14.01,2013-12-15 00:55:00,
2013-12-14 19:00:00,37.4,28.9,30.27,WNW,290,3.0,4.0,71,0.00,,,0.01,VWS V14.01,2013-12-15 01:00:00,
2013-12-14 19:05:00,37.2,29.0,30.28,WNW,294,2.0,4.0,72,0.00,,,0.01,VWS V14.01,2013-12-15 01:05:00,
2013-12-14 19:10:00,37.0,28.8,30.28,West,271,3.0,5.0,72,0.00,,,0.01,VWS V14.01,2013-12-15 01:10:00,
2013-12-14 19:15:00,36.7,28.5,30.28,WNW,283,1.0,4.0,72,0.00,,,0.01,VWS V14.01,2013-12-15 01:15:00,
2013-12-14 19:20:00,36.5,28.7,30.29,WNW,296,4.0,6.0,73,0.00,,,0.01,VWS V14.01,2013-12-15 01:20:00,
2013-12-14 19:25:00,36.4,28.6,30.29,WNW,292,4.0,4.0,73,0.00,,,0.01,VWS V14.01,2013-12-15 01:25:00,
2013-12-14 19:30:00,36.2,28.4,30.29,West,277,1.0,4.0,73,0.00,,,0.01,VWS V14.01,2013-12-15 01:30:00,
2013-12-14 19:35:00,36.1,28.6,30.29,West,274,3.0,5.0,74,0.00,,,0.01,VWS V14.01,2013-12-15 01:35:00,
2013-12-14 19:40:00,36.0,28.5,30.30,WNW,303,3.0,5.0,74,0.00,,,0.01,VWS V14.01,2013-12-15 01:40:00,
2013-12-14 19:45:00,35.8,28.3,30.30,WNW,294,3.0,5.0,74,0.00,,,0.01,VWS V14.01,2013-12-15 01:45:00,
2013-12-14 19:50:00,35.7,28.6,30.30,WNW,290,1.0,5.0,75,0.00,,,0.01,VWS V14.01,2013-12-15 01:50:00,
2013-12-14 19:55:00,35.7,28.6,30.30,WNW,293,3.0,4.0,75,0.00,,,0.01,VWS V14.01,2013-12-15 01:55:00,
2013-12-14 20:00:00,35.7,28.6,30.31,WNW,293,3.0,3.0,75,0.00,,,0.01,VWS V14.01,2013-12-15 02:00:00,
2013-12-14 20:05:00,35.6,28.5,30.31,West,281,2.0,4.0,75,0.00,,,0.01,VWS V14.01,2013-12-15 02:05:00,
2013-12-14 20:10:00,35.5,28.4,30.31,NW,311,4.0,5.0,75,0.00,,,0.01,VWS V14.01,2013-12-15 02:10:00,
2013-12-14 20:15:00,35.4,28.3,30.31,NW,306,0.0,3.0,75,0.00,,,0.01,VWS V14.01,2013-12-15 02:15:00,
2013-12-14 20:20:00,35.3,28.2,30.31,NW,313,1.0,3.0,75,0.00,,,0.01,VWS V14.01,2013-12-15 02:20:00,
2013-12-14 20:25:00,35.3,28.2,30.31,WNW,295,3.0,4.0,75,0.00,,,0.01,VWS V14.01,2013-12-15 02:25:00,
2013-12-14 20:30:00,35.2,28.1,30.31,West,281,3.0,4.0,75,0.00,,,0.01,VWS V14.01,2013-12-15 02:30:00,
2013-12-14 20:35:00,35.0,28.2,30.31,West,281,2.0,3.0,76,0.00,,,0.01,VWS V14.01,2013-12-15 02:35:00,
2013-12-14 20:40:00,34.9,28.1,30.31,West,281,1.0,3.0,76,0.00,,,0.01,VWS V14.01,2013-12-15 02:40:00,
2013-12-14 20:45:00,34.8,28.0,30.32,West,263,3.0,4.0,76,0.00,,,0.01,VWS V14.01,2013-12-15 02:45:00,
2013-12-14 20:50:00,34.7,27.9,30.32,West,267,2.0,3.0,76,0.00,,,0.01,VWS V14.01,2013-12-15 02:50:00,
2013-12-14 20:55:00,34.5,27.7,30.32,West,270,2.0,4.0,76,0.00,,,0.01,VWS V14.01,2013-12-15 02:55:00,
2013-12-14 21:00:00,34.3,27.9,30.32,West,265,3.0,3.0,77,0.00,,,0.01,VWS V14.01,2013-12-15 03:00:00,
2013-12-14 21:05:00,34.2,27.8,30.32,West,261,5.0,5.0,77,0.00,,,0.01,VWS V14.01,2013-12-15 03:05:00,
2013-12-14 21:10:00,34.0,27.6,30.32,WNW,285,2.0,3.0,77,0.00,,,0.01,VWS V14.01,2013-12-15 03:10:00,
2013-12-14 21:15:00,33.9,27.5,30.32,WNW,286,2.0,3.0,77,0.00,,,0.01,VWS V14.01,2013-12-15 03:15:00,
2013-12-14 21:20:00,33.8,27.7,30.32,WNW,286,2.0,2.0,78,0.00,,,0.01,VWS V14.01,2013-12-15 03:20:00,
2013-12-14 21:25:00,33.7,27.6,30.32,WNW,286,1.0,2.0,78,0.00,,,0.01,VWS V14.01,2013-12-15 03:25:00,
2013-12-14 21:30:00,33.5,27.4,30.32,WNW,286,1.0,3.0,78,0.00,,,0.01,VWS V14.01,2013-12-15 03:30:00,
2013-12-14 21:35:00,33.4,27.3,30.33,WNW,286,1.0,3.0,78,0.00,,,0.01,VWS V14.01,2013-12-15 03:35:00,
2013-12-14 21:40:00,33.3,27.2,30.33,WNW,286,1.0,2.0,78,0.00,,,0.01,VWS V14.01,2013-12-15 03:40:00,
2013-12-14 21:45:00,33.1,27.0,30.33,WNW,284,0.0,2.0,78,0.00,,,0.01,VWS V14.01,2013-12-15 03:45:00,
2013-12-14 21:50:00,33.1,27.0,30.33,WSW,257,1.0,3.0,78,0.00,,,0.01,VWS V14.01,2013-12-15 03:50:00,
2013-12-14 21:55:00,32.8,27.0,30.33,WSW,257,2.0,3.0,79,0.00,,,0.01,VWS V14.01,2013-12-15 03:55:00,
2013-12-14 22:00:00,32.6,26.8,30.34,West,264,2.0,5.0,79,0.00,,,0.01,VWS V14.01,2013-12-15 04:00:00,
2013-12-14 22:05:00,32.5,26.7,30.33,West,265,1.0,3.0,79,0.00,,,0.01,VWS V14.01,2013-12-15 04:05:00,
2013-12-14 22:10:00,32.4,26.9,30.33,WSW,254,2.0,3.0,80,0.00,,,0.01,VWS V14.01,2013-12-15 04:10:00,
2013-12-14 22:15:00,32.2,26.7,30.34,West,261,2.0,2.0,80,0.00,,,0.01,VWS V14.01,2013-12-15 04:15:00,
2013-12-14 22:20:00,32.1,26.6,30.34,West,260,1.0,2.0,80,0.00,,,0.01,VWS V14.01,2013-12-15 04:20:00,
2013-12-14 22:25:00,32.0,26.5,30.34,West,264,1.0,3.0,80,0.00,,,0.01,VWS V14.01,2013-12-15 04:25:00,
2013-12-14 22:30:00,31.9,26.7,30.34,WNW,288,3.0,3.0,81,0.00,,,0.01,VWS V14.01,2013-12-15 04:30:00,
2013-12-14 22:35:00,31.9,26.7,30.34,WNW,288,1.0,2.0,81,0.00,,,0.01,VWS V14.01,2013-12-15 04:35:00,
2013-12-14 22:40:00,31.9,27.0,30.34,West,273,2.0,5.0,82,0.00,,,0.01,VWS V14.01,2013-12-15 04:40:00,
2013-12-14 22:45:00,31.9,27.0,30.33,NW,322,2.0,4.0,82,0.00,,,0.01,VWS V14.01,2013-12-15 04:45:00,
2013-12-14 22:50:00,32.0,27.1,30.33,West,281,1.0,3.0,82,0.00,,,0.01,VWS V14.01,2013-12-15 04:50:00,
2013-12-14 22:55:00,32.0,27.1,30.34,WNW,288,0.0,3.0,82,0.00,,,0.01,VWS V14.01,2013-12-15 04:55:00,
2013-12-14 23:00:00,31.9,27.0,30.34,West,281,0.0,1.0,82,0.00,,,0.01,VWS V14.01,2013-12-15 05:00:00,
2013-12-14 23:01:00,31.9,27.0,30.34,West,281,0.0,1.0,82,0.00,,,0.01,VWS V14.01,2013-12-15 05:01:00,
2013-12-14 23:06:00,31.9,27.0,30.34,West,281,0.0,2.0,82,0.00,,,0.01,VWS V14.01,2013-12-15 05:06:00,
2013-12-14 23:11:00,31.8,26.9,30.34,West,281,0.0,1.0,82,0.00,,,0.01,VWS V14.01,2013-12-15 05:11:00,
2013-12-14 23:16:00,31.8,26.9,30.34,West,281,1.0,1.0,82,0.00,,,0.01,VWS V14.01,2013-12-15 05:16:00,
2013-12-14 23:21:00,31.8,26.9,30.34,West,281,0.0,2.0,82,0.00,,,0.01,VWS V14.01,2013-12-15 05:21:00,
2013-12-14 23:26:00,31.8,26.9,30.34,West,281,0.0,0.0,82,0.00,,,0.01,VWS V14.01,2013-12-15 05:26:00,
2013-12-14 23:31:00,31.8,26.9,30.34,West,281,0.0,0.0,82,0.00,,,0.01,VWS V14.01,2013-12-15 05:31:00,
2013-12-14 23:36:00,31.8,26.9,30.34,West,281,0.0,0.0,82,0.00,,,0.01,VWS V14.01,2013-12-15 05:36:00,
2013-12-14 23:41:00,31.8,26.9,30.33,West,281,0.0,0.0,82,0.00,,,0.01,VWS V14.01,2013-12-15 05:41:00,
2013-12-14 23:46:00,31.8,26.9,30.33,West,281,0.0,0.0,82,0.00,,,0.01,VWS V14.01,2013-12-15 05:46:00,
2013-12-14 23:51:00,31.8,26.9,30.33,West,281,0.0,0.0,82,0.00,,,0.01,VWS V14.01,2013-12-15 05:51:00,
2013-12-14 23:56:00,31.8,26.9,30.33,West,281,0.0,0.0,82,0.00,,,0.01,VWS V14.01,2013-12-15 05:56:00,